Regional Weather Roundup
Issued by NWS

Home | Current Version | Previous Version | Text Only | Print | Product List | Glossary On
Versions: 1 2 3 4 5 6 7 8 9 10 11 12 13 14 15 16 17 18 19 20 21 22 23 24 25 26 27 28 29 30 31 32 33 34 35 36 37 38 39 40 41 42 43 44 45 46 47 48 49 50
030
ASUS44 KFWD 231810
RWRTX
NORTH TEXAS HOURLY WEATHER ROUNDUP
NATIONAL WEATHER SERVICE FORT WORTH TX
100 PM CDT SAT JUL 23 2016

NOTE: "FAIR" INDICATES FEW OR NO CLOUDS BELOW 12,000 FEET WITH NO
SIGNIFICANT WEATHER AND/OR OBSTRUCTIONS TO VISIBILITY.

TXZ118-119-231900-
DALLAS/FORT WORTH METROPLEX

CITY           SKY/WX    TMP DP  RH WIND       PRES   REMARKS
DFW AIRPORT    MOSUNNY   97  68  38 S14       29.96F HX 102
6HR MIN TEMP:  81; 6HR MAX TEMP:  97;

DALLAS LOVE    MOSUNNY   96  69  41 SW9       29.96F HX 102
6HR MIN TEMP:  83; 6HR MAX TEMP:  97;

FTW MEACHAM    SUNNY     99  68  36 SW14G20   29.96F HX 104
6HR MIN TEMP:  82; 6HR MAX TEMP:  99;

DAL-EXECUTIVE  SUNNY     94  69  44 VRB6      29.97F HX  99
6HR MIN TEMP:  82; 6HR MAX TEMP:  95;

FTW-ALLIANCE   MOSUNNY   97  68  38 SW10G17   29.96F HX 102
6HR MIN TEMP:  79; 6HR MAX TEMP:  98;

FTW-NAS-JRB    MOSUNNY   98  67  36 S13G18    29.97F HX 102
6HR MIN TEMP:  81; 6HR MAX TEMP:  99;

FTW-SPINKS     SUNNY     97  70  41 S8        29.99F HX 103
ARLINGTON      MOSUNNY   96  70  42 S14       29.97F HX 102
6HR MIN TEMP:  78; 6HR MAX TEMP:  96;

GRAND PRAIRIE  SUNNY     93  68  43 S7        29.98F HX  97
ADDISON        SUNNY     95  68  41 S10       29.99S HX  99
MESQUITE       SUNNY     95  70  43 SE7       29.98F HX 101
LANCASTER      SUNNY     98  69  38 S6        29.98F HX 105
6HR MIN TEMP:  78; 6HR MAX TEMP:  98;

$$

TXZ091>094-102>105-117-120-121-131>134-231900-
NORTH CENTRAL TEXAS

CITY           SKY/WX    TMP DP  RH WIND       PRES   REMARKS
SHRMAN/DENISON MOSUNNY   96  68  40 S5        29.99F HX 100
6HR MIN TEMP:  81; 6HR MAX TEMP:  98;

GAINESVILLE    SUNNY     95  68  42 S9        29.99F HX  99
6HR MIN TEMP:  74; 6HR MAX TEMP:  95;

BOWIE          SUNNY     96  68  39 S10G18    29.99F HX 100
6HR MIN TEMP:  73; 6HR MAX TEMP:  96;

BRIDGEPORT     SUNNY     96  68  40 SW9       30.00F HX 100
6HR MIN TEMP:  71; 6HR MAX TEMP:  96;

DECATUR        SUNNY     94  65  37 SW9G18    29.99F HX  97
6HR MIN TEMP:  80; 6HR MAX TEMP:  94;

DENTON         SUNNY     96  69  41 S7        29.97F HX 102
6HR MIN TEMP:  76; 6HR MAX TEMP:  96;

MCKINNEY       SUNNY     97  71  42 S8        29.97F HX 104
6HR MIN TEMP:  78; 6HR MAX TEMP:  97;

GREENVILLE     SUNNY     97  64  34 SW7       29.98F HX  99
ROCKWALL       SUNNY     94  73  49 SW8       29.97F HX 103
6HR MIN TEMP:  79; 6HR MAX TEMP:  95;

TERRELL        SUNNY     96  71  44 SW8       29.98F HX 103
6HR MIN TEMP:  77; 6HR MAX TEMP:  96;

WAXAHACHIE     SUNNY     95  70  44 S8        29.99F HX 101
6HR MIN TEMP:  77; 6HR MAX TEMP:  95;

CLEBURNE       SUNNY     95  68  41 S10       30.00F HX  99
GRANBURY       SUNNY     98  65  33 SW6       29.98F HX 101
6HR MIN TEMP:  79; 6HR MAX TEMP:  99;

$$

TXZ083>090-098>101-113>116-127>130-139>142-154-155-231900-
WESTERN NORTH TEXAS

CITY           SKY/WX    TMP DP  RH WIND       PRES   REMARKS
WICHITA FALLS  SUNNY     98  65  33 S9        29.96F HX 101
6HR MIN TEMP:  73; 6HR MAX TEMP:  99;

WF-KICKAPOO    MOSUNNY   98  62  30 SW6       29.97F HX  98
6HR MIN TEMP:  76; 6HR MAX TEMP:  99;

VERNON         SUNNY     98  54  23 SW8       29.97F HX  96
ABILENE        SUNNY     94  66  39 S8G20     30.02F HX  97
6HR MIN TEMP:  76; 6HR MAX TEMP:  95;

ABILENE-DYESS  SUNNY     95  66  38 SE15G26   30.00F HX  99
6HR MIN TEMP:  74; 6HR MAX TEMP:  96; 6HR PCP: TRACE;

CISCO          SUNNY     93  64  38 S14       30.03F HX  95
BRECKENRIDGE   MOSUNNY   97  62  31 S5        29.98F HX  98
6HR MIN TEMP:  79; 6HR MAX TEMP:  97;

GRAHAM         MOSUNNY   97  67  36 S8        29.97F HX 101
6HR MIN TEMP:  74; 6HR MAX TEMP:  98;

MINERAL WELLS  SUNNY     96  67  38 VRB5      29.97F HX 100
6HR MIN TEMP:  74; 6HR MAX TEMP:  97;

STEPHENVILLE   SUNNY     95  63  35 S5G16     30.03F HX  96
6HR MIN TEMP:  73; 6HR MAX TEMP:  95;

COMANCHE       SUNNY     96  66  37 SW8G17    30.01F HX  98
6HR MIN TEMP:  76; 6HR MAX TEMP:  96;

BROWNWOOD      LGT RAIN  95  64  36 SW10      30.01F HX  97
COLEMAN        SUNNY     94  62  33 SE5G10    30.02F HX  95
6HR MIN TEMP:  74; 6HR MAX TEMP:  95;

$$

TXZ143>147-156>162-174-175-231900-
CENTRAL TEXAS

CITY           SKY/WX    TMP DP  RH WIND       PRES   REMARKS
WACO           SUNNY     96  67  38 S9        29.98F HX 100
6HR MIN TEMP:  79; 6HR MAX TEMP:  98;

WACO-TSTC      SUNNY     99  68  36 S10       29.97F HX 104
WACO-MCGREGOR  SUNNY     98  70  40 S10       29.98F HX 105
6HR MIN TEMP:  77; 6HR MAX TEMP:  98;

HILLSBORO      SUNNY     94  70  45 S5        29.98F HX  99
6HR MIN TEMP:  76; 6HR MAX TEMP:  94;

CORSICANA      SUNNY     95  71  45 S8        29.99F HX 102
6HR MIN TEMP:  79; 6HR MAX TEMP:  96;

MEXIA          MOSUNNY   94  70  45 S7G17     29.98F HX 100
6HR MIN TEMP:  76; 6HR MAX TEMP:  95;

HEARNE         SUNNY     93  70  46 SE7       30.00S HX  99
6HR MIN TEMP:  76; 6HR MAX TEMP:  93;

CAMERON        SUNNY     95  71  45 S6        29.98F HX 101
6HR MIN TEMP:  77; 6HR MAX TEMP:  95;

TEMPLE         SUNNY     96  69  41 SE10      29.99F HX 102
6HR MIN TEMP:  75; 6HR MAX TEMP:  96;

KILLEEN        SUNNY     94  65  37 S8        29.99F HX  97
6HR MIN TEMP:  77; 6HR MAX TEMP:  94;

KILLEEN-SKYLRK   N/A     95  68  41 SE14      29.99F HX  99
6HR MIN TEMP:  77; 6HR MAX TEMP:  95;

FORT HOOD      SUNNY     94  68  41 SW6       29.97F HX  98
6HR MIN TEMP:  76; 6HR MAX TEMP:  94;

GATESVILLE     SUNNY     95  64  36 S8        30.01F HX  97
HAMILTON       SUNNY     95  61  32 S10G20    30.02F HX  96
6HR MIN TEMP:  74; 6HR MAX TEMP:  96;

LAMPASAS       SUNNY     96  66  36 SE5       30.00F HX  99
6HR MIN TEMP:  76; 6HR MAX TEMP:  96;

$$

TXZ095>097-106>112-122>126-135>138-148>153-164>167-231900-
EAST TEXAS

CITY           SKY/WX    TMP DP  RH WIND       PRES   REMARKS
PARIS          SUNNY     99  66  34 SW8       29.98F HX 102
6HR MIN TEMP:  77; 6HR MAX TEMP:  99;

SULPHUR SPRNGS MOSUNNY   97  69  40 SE7       29.99F HX 103
6HR MIN TEMP:  81; 6HR MAX TEMP:  97;

MOUNT PLEASANT SUNNY     96  69  41 CALM      29.99F HX 102
6HR MIN TEMP:  76; 6HR MAX TEMP:  96;

GILMER         SUNNY     94  74  51 CALM      29.98F HX 103
6HR MIN TEMP:  77; 6HR MAX TEMP:  94;

MINEOLA        SUNNY     97  73  46 S5        29.99F HX 107
TYLER          SUNNY     95  71  45 W6        29.99F HX 102
6HR MIN TEMP:  82; 6HR MAX TEMP:  97;

LONGVIEW       MOSUNNY   96  72  45 S6        29.97F HX 104
6HR MIN TEMP:  79; 6HR MAX TEMP:  96;

MARSHALL       MOSUNNY   92  71  50 CALM      30.00S HX  99
6HR MIN TEMP:  75; 6HR MAX TEMP:  92;

ATHENS         SUNNY     91  72  52 CALM      29.97F HX  98
PALESTINE      SUNNY     92  74  53 S7        30.00F HX 102
JACKSONVILLE   SUNNY     94  71  47 SW3       30.02F HX 101
HENDERSON      MOSUNNY   94  71  47 S7        29.99F HX 101
6HR MIN TEMP:  75; 6HR MAX TEMP:  94;

CENTER         CLEAR     94  74  52 W6        29.99F HX 104
6HR MIN TEMP:  79; 6HR MAX TEMP:  95;

NACOGDOCHES    MOSUNNY   91  72  52 W5        29.97F HX  98
LUFKIN         SUNNY     93  72  50 SW5       29.99F HX 101
6HR MIN TEMP:  76; 6HR MAX TEMP:  93;

$$

SUPPLEMENTAL OBSERVATIONS (CENTRAL)

CITY           SKY/WX    TMP DP  RH WIND       PRES   REMARKS
CADDO GRASSLND   N/A    100  70  37 W5G14       N/A  HX 107
PAT MAYSE LAKE   N/A     97  68  38 S2          N/A  HX 101
GREENVILLE       N/A     97  70  41 S6G14       N/A  HX 103
CEDAR HILL       N/A     97  72  44 S6          N/A  HX 105
MCGREGOR         N/A     97  68  38 S8          N/A  HX 101
TEMPLE           N/A     97  68  38 S9          N/A  HX 101
$$

SUPPLEMENTAL OBSERVATIONS (WEST)

CITY           SKY/WX    TMP DP C1F1C2F2C3F3C4F4C5F5C6F6C7F7C8F8C9!



USA.gov is the U.S. government's official web portal to all federal, state and local government web resources and services.